星链-2590 (STARLINK-2590 )

导读 | 豆包AI

STARLINK-2590是美国太空探索技术公司Starlink星座的卫星,于2021年5月4日发射。它是星链互联网星座组网卫星,旨在为全球提供低延迟、高速宽带互联网服务,尤其覆盖偏远地区。依托近地轨道部署,该卫星助力星链不断完善全球通信网络布局,是星座扩容过程中的组成单元。

基本信息
目录编号:
48397
目录名称:
STARLINK-2590
国际标识:
2021-038AW
轨道中心:
EARTH
卫星名称:
星链-2590
卫星全名:
星链-2590 (STARLINK-2590 )
卫星状态:
在轨 (已飞行1775 天)
发射日期:
2021-05-04 UTC
国别 :
美国 (US)
星等 :
--
轨道信息
数据来源 国际轨道数据
星历时间: 2026-03-14T06:50:23+0800
17小时前
查看轨道信息
半长轴: 6853.351km
偏心率: 0.0001045
轨道倾角: 53.159°
近地点辐角 72.338°
升交点赤经 312.847°
平近点角 287.774°
近地点: 474.497km
远地点: 475.931km
周期: 94.105分钟
每日圈数: 15.302006
详细信息
固有亮度:
5
最大亮度:
2.5
卫星平台:
Starlink V1.0
覆盖范围:
全球
运营商:
太空探索技术公司
运营商所在国:
美国
制造商(研发单位):
太空探索技术公司
制造商所在国:
美国
使用方式:
暂无
卫星简介
星链(Starlink)计划是由太空探索技术公司(SpaceX)提出的一个巨型低轨卫星互联网星座项目,计划在2019年至2024年间在太空搭建由约1.2万颗卫星组成的“星链”网络,其中1584颗将部署在地球上空550千米处的近地轨道,并从2020年开始工作。该卫星仍在工作。
2D轨道图
3D轨道图
轨道高度分析图
轨道倾角分析图
轨道综合分析图
查看轨道综合分析图